This is the latest recevied weather packets stored in our database for station/object K6HFP. If no packets are shown the sender has not sent any weather packets the latest 10 day(s).
| Time | Temp. | Humidity | Pressure | Rain* | Wind** | Luminosity | Snow |
|---|---|---|---|---|---|---|---|
| 1777828660 | 15° C | 78% | 1010.3 hPa | 0 mm | - | 660 W/m² | - |
| 1777828358 | 14.44° C | 78% | 1010.1 hPa | 0 mm | - | 470 W/m² | - |
| 1777828055 | 15° C | 78% | 1010.2 hPa | 0 mm | - | 413 W/m² | - |
| 1777827751 | 14.44° C | 78% | 1010.1 hPa | 0 mm | - | 571 W/m² | - |
| 1777827449 | 14.44° C | 80% | 1010.1 hPa | 0 mm | - | 411 W/m² | - |
| 1777827146 | 13.89° C | 83% | 1009.9 hPa | 0 mm | - | 362 W/m² | - |
| 1777826841 | 13.89° C | 82% | 1010.1 hPa | 0 mm | - | 281 W/m² | - |
| 1777826540 | 13.89° C | 83% | 1009.9 hPa | 0 mm | - | 279 W/m² | - |
| 1777826235 | 13.89° C | 84% | 1009.9 hPa | 0 mm | - | 503 W/m² | - |
| 1777825934 | 13.33° C | 85% | 1010.2 hPa | 0 mm | - | 286 W/m² | - |
| 1777825630 | 13.33° C | 85% | 1010.1 hPa | 0 mm | - | 268 W/m² | - |
| 1777825328 | 13.33° C | 84% | 1009.9 hPa | 0 mm | - | 288 W/m² | - |
| 1777825024 | 13.33° C | 86% | 1010.2 hPa | 0 mm | - | 274 W/m² | - |
| 1777824721 | 13.33° C | 85% | 1010 hPa | 0 mm | - | 284 W/m² | - |
| 1777824418 | 13.33° C | 85% | 1009.8 hPa | 0 mm | - | 255 W/m² | - |
| 1777824113 | 13.33° C | 85% | 1009.8 hPa | 0 mm | - | 248 W/m² | - |
| 1777823810 | 13.33° C | 85% | 1009.8 hPa | 0 mm | - | 267 W/m² | - |
| 1777823508 | 13.33° C | 86% | 1010.1 hPa | 0 mm | - | 241 W/m² | - |
| 1777823204 | 13.33° C | 85% | 1009.8 hPa | 0 mm | - | 258 W/m² | - |
| 1777822902 | 13.33° C | 85% | 1009.6 hPa | 0 mm | - | 268 W/m² | - |
| 1777822600 | 12.78° C | 84% | 1009.5 hPa | 0 mm | - | 253 W/m² | - |
| 1777822297 | 12.78° C | 86% | 1009.5 hPa | 0 mm | - | 262 W/m² | - |
| 1777821994 | 12.78° C | 86% | 1009.4 hPa | 0 mm | - | 222 W/m² | - |
| 1777821692 | 12.78° C | 86% | 1009.4 hPa | 0 mm | - | 205 W/m² | - |
| 1777821390 | 12.78° C | 86% | 1009.4 hPa | 0 mm | - | 183 W/m² | - |
* Rain latest hour (hover to see other rain measurements)
** Current wind speed in m/s (hover to see current wind gust speed)